Terug naar catalogus

SL-14 R/B

ActiefPO
NORAD 22627·ROCKET BODY·🇷🇺 Russia

Gelanceerd Apr 16, 1993 vanaf Plesetsk Cosmodrome

Loading…

Volgende Passages (komende 24 uur)

TLE

VersSource: Space-Track

Epoch: Sep 14, 2026, 06:10 UTC

1 22627U 93024B   26257.25708664  .00000273  00000-0  32615-4 0  9990
2 22627  82.5230 202.0691 0024205  83.1144 277.2822 14.80196017801056

Volg SL-14 R/B in realtime met AllMySat

Download on the App Store